Location: ???????
(55.3754°N, 39.3545°E)
Time: 19:59:20
(UTC+00:00)

Cosmos 2242 Rocket - Pass Details

Date: 14 April 2026
Orbit: 612 x 646 km, 82.5° (Epoch: 19 May)

Event Time Altitude Azimuth Distance (km) Brightness Sun altitude
Rises 18:23:16 0° 345° (NNW) 2,956 8.1 -15.0°
Reaches altitude 10° 18:25:33 10° 341° (NNW) 2,037 7.2 -15.3°
Maximum altitude 18:29:58 54° 264° (W) 769 4.2 -15.7°
Enters shadow 18:33:44 13° 190° (S) 1,782 5.6 -16.1°
